User: anonymous   Login
Location: Unspecified
(35.6961°N, 0.0000°E)
Time: 15:03:49
(UTC+00:00)
Language:

SO-50 - Orbit

View from above orbital plane
View from above orbital plane
View from above satellite
View from above satellite

Ground track
Ground track

The orbit data is extracted from the following two-line orbital elements,

1 27607U 02058C   19177.00191347 -.00000051  00000-0  13822-4 0  9994
2 27607  64.5555  27.2471 0081118 255.1366 104.0741 14.75554329888112
Epoch (UTC): 26 June 2019 00:02:45
Eccentricity: 0.0081118
inclination: 64.5555°
perigee height: 586 km
apogee height: 700 km
right ascension of ascending node: 27.2471°
argument of perigee: 255.1366°
revolutions per day: 14.75554329
mean anomaly at epoch: 104.0741°
orbit number at epoch: 88811

The dashed part of the orbit path shows where the satellite is in the earth's shadow,  

DLR